Theta_e
327 330 330 325 309 307 300 303 309 308 308 312 312 310 307 310 308 306 336 340 342 343 348 349 349 352 352 351 350 349 349 349 348 345 345 343 342 340 340 342 345 343 339 339 336 334 336 336 337
324 327 326 317 304 297 300 307 306 309 312 313 312 311 309 307 315 321 332 340 342 344 348 347 346 350 351 350 350 349 349 348 348 347 344 343 342 341 339 340 343 343 337 337 337 334 334 333 334
324 325 315 308 303 298 298 307 308 311 314 313 311 315 313 310 321 328 339 341 343 344 348 347 345 350 350 350 349 348 348 348 348 348 346 343 342 342 342 341 342 341 338 338 335 333 333 331 330
319 317 314 301 298 303 304 307 311 310 313 314 313 309 316 324 327 334 340 342 342 344 346 342 345 349 349 349 348 348 348 348 348 348 348 345 344 343 342 342 341 342 339 335 334 334 334 333 331
315 311 300 298 299 303 307 310 311 309 311 312 314 310 313 326 334 336 339 342 341 342 345 344 344 347 348 348 348 348 347 347 348 347 345 345 344 342 342 341 341 341 340 334 333 334 334 333 332
303 305 296 294 298 302 305 309 311 310 311 312 312 312 315 331 331 337 341 341 342 342 345 344 339 341 344 346 346 347 347 347 346 345 345 344 343 341 341 340 339 340 338 334 333 333 333 333 332
300 299 294 296 296 298 302 309 309 309 309 311 315 310 316 322 334 337 340 340 340 342 344 346 345 342 336 340 341 343 344 344 343 344 343 341 341 340 339 337 338 339 337 334 333 332 331 332 332
304 299 293 295 294 295 303 305 310 310 308 316 318 310 311 323 333 337 340 340 340 342 344 344 345 344 343 343 334 336 339 340 341 340 337 335 335 335 335 333 335 337 336 335 332 331 329 329 328
304 293 290 293 294 296 302 301 310 314 309 312 314 314 320 328 331 332 334 335 338 340 341 344 344 344 342 341 336 332 332 334 334 335 331 331 338 336 333 330 332 335 334 334 331 329 329 329 327
296 289 289 294 296 296 300 302 305 305 305 308 311 316 318 316 320 326 326 329 333 335 340 341 342 342 340 338 338 338 337 339 341 341 340 340 338 335 332 327 328 330 329 330 329 328 328 324 323
292 288 293 293 296 298 297 298 303 301 300 306 307 312 312 312 315 318 326 328 331 335 336 340 341 341 340 337 337 336 336 337 337 340 340 339 336 333 333 333 331 329 323 325 325 324 320 320 322
288 291 291 292 294 292 292 295 294 297 300 306 307 308 308 308 310 316 320 325 328 333 334 336 341 341 339 338 336 335 337 341 340 340 340 337 335 332 334 332 330 329 326 323 322 320 322 322 323
289 290 292 292 292 291 292 289 290 291 297 301 303 302 303 305 308 315 320 323 329 331 333 335 338 339 339 335 336 336 336 339 340 339 338 337 333 334 331 331 330 329 327 323 321 321 322 323 323
291 290 290 292 291 292 289 290 291 291 294 294 296 298 302 304 307 312 316 319 322 329 333 336 336 338 336 334 335 335 335 336 338 339 337 334 333 333 330 328 327 327 325 322 320 320 321 322 323
291 287 289 290 291 290 291 286 287 292 294 292 293 295 298 300 305 308 312 314 320 325 333 333 336 337 335 335 333 335 334 334 336 335 335 334 333 331 329 327 326 325 323 320 319 320 322 321 321
286 287 282 290 289 291 288 282 290 294 292 291 292 294 294 296 301 304 309 312 316 322 326 333 334 335 335 334 332 334 333 333 335 335 335 334 333 331 329 327 325 324 322 320 319 321 322 321 322
285 279 282 285 291 289 287 284 291 294 292 291 292 293 294 295 298 301 306 310 315 320 325 329 331 333 333 333 332 332 333 333 333 336 334 333 333 330 328 327 326 324 321 319 320 322 322 321 322
280 280 282 282 287 287 286 285 290 292 292 290 291 292 293 294 295 298 305 310 317 322 326 329 332 332 333 332 330 331 332 332 333 333 333 333 331 328 326 325 325 323 320 319 322 322 324 322 322
284 283 282 285 289 286 285 285 287 291 291 291 291 292 293 294 297 299 302 305 310 319 323 327 330 330 330 329 327 327 326 328 329 330 329 329 327 326 325 323 323 322 319 320 322 323 322 322 324
284 282 282 285 288 286 285 284 287 289 290 291 291 291 293 294 296 297 301 307 311 318 322 326 330 329 329 329 328 328 327 327 329 328 327 327 326 325 324 323 323 321 318 319 322 323 322 323 325
284 282 282 281 285 287 284 282 284 288 290 291 292 292 293 293 294 296 298 308 314 317 320 325 328 328 329 330 329 327 327 326 325 325 325 326 326 325 324 324 326 323 321 318 322 323 322 320 323
281 287 285 283 281 277 284 274 282 286 287 289 290 291 292 293 294 296 297 306 311 313 311 314 316 325 330 330 327 326 323 322 324 325 326 325 325 325 325 325 327 326 324 321 323 325 324 323 321
283 288 286 285 282 281 280 276 281 285 283 286 289 291 292 293 294 295 298 308 307 306 308 309 314 314 318 329 328 326 325 326 325 325 324 325 326 327 325 326 327 326 326 326 325 324 324 324 323
289 285 283 283 280 273 277 277 278 281 283 286 289 291 292 293 293 295 301 304 302 303 305 307 310 308 311 315 320 325 324 324 322 322 321 324 324 325 325 326 327 327 326 326 326 327 326 325 324
286 281 275 273 272 271 279 276 279 285 287 288 289 291 292 293 293 299 301 300 299 300 302 303 305 304 306 307 307 310 311 315 318 323 322 322 323 323 324 326 326 326 326 326 327 326 326 325 323
283 281 275 269 271 274 278 273 279 286 287 289 291 293 293 294 298 297 297 297 296 297 299 300 300 301 302 303 301 304 304 307 309 313 313 322 323 323 325 324 326 326 326 326 326 326 324 323 322
283 279 284 278 278 274 277 279 284 285 285 287 289 291 293 292 293 292 293 293 294 295 296 297 297 297 298 299 299 300 299 301 301 302 304 306 308 319 321 322 323 323 324 324 325 323 320 315 316
282 285 277 278 270 270 275 275 273 278 281 286 287 287 287 288 289 290 291 292 293 293 293 294 294 294 295 295 296 296 296 296 297 297 297 298 300 301 303 303 303 303 303 304 304 301 300 299 297
280 279 281 281 279 273 271 272 280 280 281 282 284 285 286 286 287 288 290 291 291 292 292 292 292 292 292 293 293 293 293 294 294 294 294 294 295 296 297 297 297 297 297 296 295 294 294 293 292
283 281 282 277 275 277 275 272 282 283 282 283 283 284 284 285 285 286 288 289 290 289 290 290 290 290 291 291 291 291 291 292 291 291 291 292 292 293 293 294 293 293 293 293 292 291 290 289 288
Wind_Speed
18 9 6 6 9 9 18 18 16 12 6 2 3 8 7 14 8 4 1 5 6 14 18 19 17 18 18 17 18 17 18 18 18 18 19 17 16 14 12 11 12 14 15 13 13 11 11 13 13
12 9 6 7 10 16 16 19 20 15 6 2 2 5 8 11 13 3 2 4 6 15 16 17 14 17 19 18 18 18 18 17 17 17 18 17 16 14 13 13 12 16 13 13 13 11 11 10 11
13 8 8 7 17 21 20 17 15 14 15 9 6 5 8 4 4 3 4 5 8 15 15 14 12 16 19 18 18 18 17 17 17 17 17 18 16 14 14 12 12 12 14 13 12 11 12 11 11
6 6 7 15 25 23 26 21 9 15 18 14 12 11 6 5 4 5 2 4 10 15 12 18 14 16 17 18 18 18 17 18 16 17 16 16 15 13 13 11 13 12 13 13 11 10 12 11 10
8 9 13 20 30 30 21 15 16 15 16 16 13 14 7 8 4 3 0 5 11 12 10 16 16 14 15 16 17 17 17 16 15 16 15 15 15 14 12 12 12 13 14 13 10 10 12 10 9
7 8 15 23 28 26 24 21 15 17 16 19 10 12 8 7 6 7 1 5 11 10 11 15 16 14 12 14 15 15 14 13 14 14 14 15 15 15 12 12 11 10 13 13 11 10 8 9 9
13 12 22 26 25 24 23 19 20 18 19 22 13 15 8 5 6 6 2 4 5 8 10 14 17 16 12 10 10 11 12 12 12 13 14 15 15 14 13 11 10 11 14 13 11 10 8 7 8
8 11 25 22 21 30 20 17 19 20 23 19 15 13 12 2 6 5 5 1 7 8 12 14 15 16 16 13 8 9 9 10 10 11 12 12 12 11 11 10 9 10 10 13 11 9 8 7 6
7 9 15 22 21 20 14 19 9 7 7 15 22 23 3 7 2 2 3 2 5 10 9 14 15 15 15 15 11 7 6 8 10 11 11 12 10 13 13 9 11 11 9 10 9 8 7 7 5
9 13 14 14 18 14 16 9 12 10 11 14 16 6 7 5 6 5 4 5 8 9 13 13 13 15 14 11 13 12 11 10 11 12 14 11 10 10 12 10 11 12 10 9 9 7 6 7 6
7 17 17 13 12 11 14 15 12 14 16 18 13 13 8 9 8 8 7 7 10 11 8 14 13 13 13 10 9 7 6 7 9 14 13 11 8 7 7 7 7 7 8 7 7 7 6 8 5
12 16 15 16 16 14 17 17 19 19 17 18 10 14 13 14 10 9 9 10 10 10 12 11 16 13 13 7 7 8 7 7 7 10 14 8 6 7 7 7 9 7 7 8 7 5 6 6 6
17 18 18 16 16 18 19 22 23 27 20 18 16 17 18 18 15 12 9 10 11 10 12 13 14 13 9 7 8 6 6 6 8 9 11 9 7 7 8 7 7 8 8 7 7 6 6 6 6
15 16 19 19 20 18 19 22 20 23 19 22 24 22 18 17 16 14 11 12 11 11 11 15 14 13 10 7 10 7 6 8 7 9 10 12 8 7 8 7 7 7 7 7 7 7 7 6 6
12 17 19 20 19 21 16 23 30 24 24 25 24 21 20 20 18 17 16 12 11 11 11 11 15 14 13 13 10 8 7 8 7 7 9 11 10 11 10 7 7 8 7 9 7 7 7 6 6
19 16 17 8 4 7 8 21 18 16 17 23 22 20 21 21 21 18 16 15 13 12 12 11 11 14 16 12 10 9 9 8 8 7 8 11 12 12 10 8 8 7 7 7 7 7 7 6 6
10 14 16 18 14 11 13 20 13 8 13 17 17 17 16 16 20 20 18 17 15 14 14 13 12 19 15 13 10 10 12 8 8 9 8 11 12 13 9 8 7 8 7 7 7 7 7 6 6
13 11 15 16 11 8 17 28 21 19 17 15 16 16 16 16 20 18 17 16 14 13 13 14 10 11 15 11 9 7 9 7 7 7 7 11 10 10 8 7 8 8 7 7 7 8 7 6 7
22 23 26 20 18 16 22 26 25 22 21 21 19 18 18 17 16 15 16 15 14 13 12 12 12 11 9 9 9 10 11 9 6 7 8 10 9 10 9 7 9 9 9 9 9 8 9 7 6
21 24 27 24 22 19 21 27 25 24 24 24 22 20 19 18 16 19 16 16 14 12 12 12 13 11 10 6 7 6 9 9 8 5 8 11 12 11 9 9 9 11 8 10 10 10 7 7 7
21 23 24 25 23 14 15 27 27 31 25 25 26 22 21 19 16 18 16 15 11 10 9 12 12 14 12 11 8 5 6 6 7 6 7 11 12 11 11 12 9 10 9 9 10 10 12 8 7
23 23 25 25 18 14 16 15 17 16 18 24 25 21 21 20 17 17 15 12 4 9 3 6 3 9 14 13 10 12 10 8 7 10 10 9 12 13 13 13 12 10 9 10 10 9 9 9 8
16 15 16 14 13 15 19 15 24 16 21 22 22 23 21 19 18 18 15 8 3 4 4 4 2 3 4 13 14 11 11 8 7 7 9 10 11 14 14 14 13 12 9 10 10 11 12 10 8
12 6 4 6 5 11 14 14 16 9 18 18 20 20 20 18 18 18 10 5 2 3 3 1 3 5 4 3 3 12 12 10 9 11 10 9 9 11 14 14 13 13 11 11 11 11 12 11 9
8 3 4 6 8 8 3 8 15 9 17 21 20 16 17 16 18 10 10 7 4 2 1 3 2 7 3 4 6 5 4 4 2 6 11 13 10 9 13 15 14 11 13 12 12 12 12 11 10
12 5 5 6 4 6 3 7 3 9 18 16 20 9 16 11 10 10 8 5 4 3 4 5 4 9 6 4 7 5 6 1 3 2 2 4 7 8 11 12 13 14 13 13 12 9 9 9 9
7 5 8 7 7 10 8 3 4 16 16 18 16 14 9 9 8 9 7 6 5 5 7 7 6 9 9 8 7 8 8 7 4 6 4 1 4 5 8 9 12 9 12 11 12 7 7 5 6
4 8 6 5 5 7 3 5 11 19 17 6 11 12 11 9 9 8 7 8 6 7 7 9 9 11 11 9 8 9 9 7 6 7 8 8 6 7 5 7 6 5 5 5 6 4 4 6 4
16 6 6 5 4 5 4 5 12 15 14 10 9 11 11 10 8 8 9 9 7 9 9 8 10 11 11 10 10 10 11 10 8 8 10 9 9 9 7 10 8 9 7 7 10 9 8 8 9
15 16 3 4 5 5 2 5 16 13 15 11 14 10 10 10 10 9 11 10 10 9 11 10 11 13 11 10 11 15 13 11 12 12 12 10 11 11 9 11 10 11 8 10 11 12 10 10 10
Wind_Direction
299 289 284 262 248 227 251 243 254 251 252 200 308 218 231 245 221 250 342 216 211 166 145 166 161 157 153 150 150 157 157 159 154 150 144 144 142 143 138 129 120 140 128 117 104 110 97 96 94
303 292 246 264 246 247 242 234 240 237 246 149 209 219 241 249 250 116 206 173 218 163 149 173 164 159 153 154 152 157 160 160 155 153 147 146 145 144 144 137 128 132 123 129 119 118 113 104 103
282 260 254 229 237 242 249 241 224 235 239 215 267 225 276 231 94 4 73 174 196 157 157 158 161 162 154 154 154 158 161 159 162 154 154 151 152 151 147 146 126 122 131 127 118 128 124 113 110
267 207 256 246 240 238 244 256 221 234 249 216 258 271 215 10 2 19 29 167 190 150 168 142 158 162 158 157 158 160 163 165 166 159 160 157 155 150 150 145 137 142 133 122 124 134 127 124 112
234 258 236 236 243 243 245 231 253 235 246 242 218 240 225 120 26 339 79 183 192 159 156 157 155 164 159 162 162 163 164 170 169 164 166 159 153 149 152 145 146 147 138 130 133 136 137 128 122
236 247 235 238 245 244 243 243 218 251 245 245 201 254 253 103 10 15 327 188 189 168 150 164 158 157 163 165 164 164 166 169 167 170 166 160 150 148 152 145 143 146 129 138 134 129 128 133 131
247 231 246 254 259 259 247 227 212 226 238 239 238 249 251 173 51 33 12 185 181 176 162 168 170 162 157 166 163 162 168 172 173 169 163 160 150 151 151 146 145 144 140 144 142 138 139 143 143
284 255 258 252 258 263 270 255 226 229 243 254 237 229 248 72 61 62 80 1 179 190 180 172 177 170 173 175 162 161 165 164 164 159 155 151 145 148 147 142 147 145 153 142 149 149 149 143 143
262 250 248 252 256 260 265 269 232 269 303 271 252 253 63 45 358 147 140 154 220 199 213 186 181 178 175 176 173 166 168 159 159 154 151 151 166 163 154 171 149 149 139 142 153 160 148 127 124
239 243 261 286 287 292 296 309 307 282 262 242 259 224 114 18 327 259 223 206 208 221 213 207 191 183 177 178 164 189 191 194 196 181 171 175 165 172 172 150 144 133 131 141 157 156 139 189 170
252 251 283 306 294 324 299 292 278 264 255 253 240 235 9 318 306 295 230 226 218 215 217 220 200 189 181 181 160 185 179 188 193 189 178 179 171 155 179 150 150 144 159 174 166 162 195 211 211
272 266 267 280 284 292 279 292 278 274 267 278 301 306 302 294 295 285 285 256 217 215 221 219 209 197 187 169 173 181 173 188 192 184 179 164 162 175 175 167 173 163 180 185 189 186 208 200 224
268 267 273 275 269 272 276 270 274 267 264 267 272 276 276 282 282 282 280 280 279 230 218 215 213 204 188 188 170 177 165 170 188 177 171 169 180 181 186 181 181 172 177 184 185 193 193 204 211
293 294 287 281 273 262 265 268 263 252 257 256 257 253 261 262 265 268 272 273 266 249 234 222 207 196 179 183 169 183 170 175 190 177 174 182 189 178 190 188 190 190 184 187 191 189 194 203 205
288 282 280 266 256 252 253 267 254 263 258 257 257 251 251 256 256 258 265 267 279 285 234 227 215 188 181 181 179 175 187 178 203 170 184 197 190 187 190 193 190 191 187 189 196 193 195 202 200
273 280 274 268 322 237 206 260 268 262 231 239 244 252 253 249 249 254 257 260 258 262 266 217 212 191 186 181 184 176 185 186 193 185 187 198 194 192 193 191 197 191 184 194 196 194 192 202 194
229 267 270 280 251 239 213 271 268 270 253 247 243 250 253 249 250 242 249 253 249 253 254 241 203 198 184 174 175 190 179 185 191 205 187 196 198 197 196 196 196 189 189 198 202 199 196 191 194
266 247 255 265 271 235 244 256 266 272 259 248 251 257 255 255 247 251 249 256 253 251 258 256 197 223 186 172 171 183 188 182 192 199 193 194 193 194 199 196 193 187 193 200 204 206 203 199 196
273 279 280 278 281 267 256 260 266 270 268 258 251 249 252 249 256 266 264 251 257 253 252 252 216 195 190 171 178 183 183 183 199 188 184 194 192 188 200 199 191 192 195 200 202 207 203 215 193
253 260 261 275 267 260 263 266 274 274 270 260 257 248 249 249 245 250 246 253 233 249 256 245 208 201 190 182 187 188 184 187 189 194 187 196 197 187 193 206 193 193 198 203 204 208 206 208 184
252 252 264 265 277 259 262 266 257 260 255 253 252 248 249 249 235 248 241 243 229 247 252 268 209 198 195 186 174 163 161 170 171 187 204 205 199 195 196 204 200 196 201 203 205 206 213 203 186
266 254 263 263 262 261 190 276 260 266 250 238 245 240 237 239 236 241 240 233 250 242 297 287 290 238 194 185 188 189 189 174 192 205 204 197 201 201 198 202 205 197 198 205 203 206 210 216 204
279 286 275 270 267 277 249 264 277 267 259 252 241 233 233 229 223 230 225 215 202 266 254 268 263 49 344 196 193 198 203 193 179 194 198 198 204 206 205 202 205 202 202 208 205 204 212 217 221
284 263 241 239 243 246 248 228 282 282 262 260 245 236 231 221 215 225 192 169 185 262 246 237 169 79 50 26 200 221 218 215 191 193 198 201 202 203 208 204 209 203 207 204 209 214 213 216 218
221 200 248 221 208 251 108 245 245 318 331 305 292 251 248 206 217 161 169 185 142 201 148 101 136 95 79 102 77 72 90 66 349 236 209 205 204 197 204 207 209 203 208 206 207 212 216 214 219
256 214 242 284 262 291 84 242 291 349 321 285 270 247 284 169 139 160 135 132 104 89 75 89 74 81 60 43 79 82 41 66 310 270 348 213 202 200 202 210 212 209 208 210 209 210 210 212 219
358 242 297 280 253 267 242 243 227 341 309 274 231 232 137 108 125 107 102 90 99 92 78 82 84 77 62 53 55 63 60 48 2 4 358 341 342 243 195 203 210 211 213 210 207 201 208 200 216
253 296 257 191 263 261 199 75 337 334 342 48 122 108 97 94 93 90 91 85 76 78 77 84 80 77 66 60 61 62 60 51 45 43 31 30 25 30 48 74 58 65 73 93 91 82 87 103 54
327 275 243 286 239 300 1 44 341 349 5 13 81 88 95 93 81 85 86 72 75 72 73 65 73 72 66 59 56 65 52 50 46 55 43 35 32 33 47 67 66 56 61 67 81 77 65 68 85
351 352 333 281 45 341 55 50 347 12 23 21 51 59 80 83 82 68 73 64 64 62 64 62 59 64 60 61 59 52 51 41 47 44 42 37 44 38 36 58 61 63 51 64 77 77 70 67 79